Location: Joplin, MO
(37.0842°N, 94.5133°W)
Time: 22:46:18
(UTC+02:00)

Courier 1B Rocket - Pass Details

Date: 08 April 2023
Orbit: 920 x 1202 km, 28.2° (Epoch: 05 June)

Event Time Altitude Azimuth Distance (km) Brightness Sun altitude
Rises 04:49:39 0° 261° (W) 4,017 9.0 -24.0°
Reaches altitude 10° 04:54:14 10° 237° (WSW) 2,998 7.8 -24.8°
Maximum altitude 04:57:34 14° 210° (SSW) 2,688 7.3 -25.3°
Enters shadow 04:59:38 12° 192° (SSW) 2,764 7.2 -25.7°
Drops below altitude 10° 05:00:50 10° 182° (S) 2,900 - -25.9°
Sets 05:05:07 0° 158° (SSE) 3,783 - -26.6°
